ARIANE 42P DEB, 44510

Orbit data source: Space-Track

ARIANE 42P DEB, 44510 is space debris in LEO originally from a launch on Mon, 10 Aug 1992 UTC launched from the French Guiana (FRGUI). Debris objects in space refer to the collection of defunct objects orbiting the Earth. Examples of debris include non-operational satellites, rocket bodies, and fragments generated from explosions, collisions, or faulty payload assembly.

Loading next visibility...
Identifier
44510, 1992-052H
Orbit
LEO
Last TLE update
1 day ago
Origin
Manufacturer
ArianeGroup
Mission
Spacecraft
Bus & Motor
Unknown
Mass
Unknown
Launch date (UTC)
1992-08-10 (33 years ago)
Launch vehicle
Unknown
Launch site
French Guiana (FRGUI)
Object type
Payload
Rocket body
Debris
Shape & HBR
Unknown
Radar Cross Section
Small (<0.1 m²)

Expand to show TLE details & history

TLE from 1 day ago
0 ARIANE 42P DEB
1 44510U 92052H   25185.72042459  .00000643  00000-0  30061-2 0  9991
2 44510  66.0563 300.5963 0070349 112.9248 247.9212 12.81324757275065
Epoch: 2025-07-04T17:17Z
TLE epoch observation values (Epoch: 2025-07-04T17:17:24.684Z)
Latitude
-0.00003°
Longitude
118.27467°
Altitude
1,358.787 km
Speed
7.17 km/s
True Right ascension
20h 02m 23s
True Declination
0° 00' 00"
Sunlit
Object was in full shadow at epoch
Visualization orbit readout
Latitude
-26.91396°
Longitude
103.21895°
Altitude
1,387.78 km
Speed
7.145 km/s
Apparent Right ascension
18h 21m 53s
Apparent Declination
-33° 11' 42"
Sunlit
Object is in full shadow
Visualization observer readout
Local Sidereal Time
05:24:36
Azimuth
295.872° NW
Elevation
-76.704°
Doppler factor
1
Orbital elements
Apogee altitude
1,388.968 km
Perigee altitude
1,280.45 km
Semi-major axis
7,712.846 km
Eccentricity
0.00703
Inclination
66.0563°
RAAN
300.5963°
Arg. of periapsis
112.9248°
True anomaly
Unknown
Mean anomaly
247.9212°
Eccentric anomaly
Unknown
Mean motion
3.20421 °/min
Orbital period
112.35 mins
BSTAR
0.0030061
Loading maneuver chart data...
Loading SW <> Apogee altitude chart data...
Loading historical data...
Loading historical data...
Loading historical data...
Loading historical data...
Loading historical data...
Loading historical data...
Loading historical data...

ARIANE 42P DEB Visibility forecast

Observer location: undefined°, undefined°

Span
Click to sort rows by Start time (UTC) header in descending order
Start Az.
Max El. time (UTC)
Max El. Az.
Max El.
End time (UTC)
End Az.
14 mins2025-07-05 18:13:14.289Z332.4° NNW2025-07-05 18:20:14.289Z69.436° E44.498°2025-07-05 18:27:14.289Z145.919° SSE
9 mins2025-07-05 20:11:14.289Z291.143° WNW2025-07-05 20:15:14.289Z255.453° W19.218°2025-07-05 20:20:14.289Z214.683° SW
14 mins2025-07-06 08:44:14.289Z191.951° SSW2025-07-06 08:51:14.289Z99.911° ESE42.006°2025-07-06 08:58:14.289Z36.262° NE
12 mins2025-07-06 10:41:14.289Z258.755° W2025-07-06 10:47:14.289Z315.12° NNW27.805°2025-07-06 10:53:14.289Z11.997° NNE
12 mins2025-07-06 16:40:14.289Z350.342° N2025-07-06 16:46:14.289Z49.901° ENE26.6°2025-07-06 16:52:14.289Z101.945° ESE
|